User: anonymous   Login
Location: Unspecified
(0.0000°N, 0.0000°E)
Time: 16:05:16
(UTC+02:00)
Language:

Ariane H10 - Orbit

View from above orbital plane
View from above orbital plane
View from above satellite
View from above satellite

Ground track
Ground track

The orbit data is extracted from the following two-line orbital elements,

1 21815U 91084C   17178.76903575 +.00000066 +00000-0 +48043-3 0  9999
2 21815 004.0656 076.4367 7182678 084.0691 346.1000 02.31750628212597
Epoch (UTC): 27 June 2017 18:27:24
Eccentricity: 0.7182678
inclination: 4.0656°
perigee height: 417 km
apogee height: 35067 km
right ascension of ascending node: 76.4367°
argument of perigee: 84.0691°
revolutions per day: 2.31750628
mean anomaly at epoch: 346.1000°
orbit number at epoch: 21259

The dashed part of the orbit path shows where the satellite is in the earth's shadow,  

DLR